Location: ???????
(54.9996°N, 37.9529°E)
Time: 10:32:56
(UTC+00:00)

Cosmos 1733 - Pass Details

Date: 14 April 2024
Orbit: 458 x 471 km, 82.5° (Epoch: 18 May)

Event Time Altitude Azimuth Distance (km) Brightness Sun altitude
Rises 00:14:51 0° 349° (N) 2,560 7.3 -16.7°
Reaches altitude 10° 00:16:59 10° 353° (N) 1,675 6.3 -16.5°
Maximum altitude 00:20:38 67° 76° (ENE) 529 3.4 -16.1°
Drops below altitude 10° 00:24:14 10° 160° (SSE) 1,655 5.5 -15.8°
Enters shadow 00:24:24 - 160° (SSE) 1,726 5.6 -15.8°
